Tampa Knight Airport, FL

11:09 PM EST on December 11, 2019 (GMT -0500)
Knight

Weather History for KTPF - September, 2019

Change the Weather History Date:

Saturday, September 21, 2019

  Actual Average (KTPA) Record (KTPA)
Temperature  
Mean Temperature 81 °F -  
Max Temperature 91 °F 86 °F 95 °F (1942)
Min Temperature 71 °F 72 °F 59 °F (1897)
Cooling Degree Days 16    
Growing Degree Days 31 (Base 50)    
Moisture  
Dew Point 68 °F    
Average Humidity 70    
Maximum Humidity 94    
Minimum Humidity 43    
Precipitation  
Precipitation 0.00 in - - ()
Sea Level Pressure  
Sea Level Pressure 30.12 in    
Wind  
Wind Speed 11 mph (ENE)    
Max Wind Speed 18 mph    
Max Gust Speed 25 mph    
Visibility 10 miles    
Events      
Averages and records for this station are not official NWS values.
T = Trace of Precipitation, MM = Missing Value Source: NWS Daily Summary

Daily Weather History Graph

Daily Weather History Graph

Search for Another Location

Airport or City:

Astronomy

Sep. 21, 2019 Rise Set
Actual Time 7:17 AM EDT 7:27 PM EDT
Civil Twilight 6:54 AM EDT 7:51 PM EDT
Nautical Twilight 6:26 AM EDT 8:18 PM EDT
Astronomical Twilight 5:59 AM EDT 8:45 PM EDT
Moon No Moon Rise 1:50 PM EDT (9/21)
Length of Visible Light 12h 56m
Length of Day
12h 10m
Waning Gibbous, 55% of the Moon is Illuminated
Sep 21
Waning Gibbous
Sep 21
Last Quarter
Sep 28
New
Oct 5
First Quarter
Oct 13
Full

Hourly Weather History & Observations

Time (EDT) Temp. Heat Index Dew Point Humidity Pressure Visibility Wind Dir Wind Speed Gust Speed Precip Events Conditions
12:15 AM 75.2 °F - 68.0 °F 78% 30.14 in 10.0 mi ENE 9.2 mph - N/A   Overcast
12:35 AM 73.4 °F - 68.0 °F 83% 30.13 in 10.0 mi ENE 6.9 mph - N/A   Overcast
12:55 AM 73.4 °F - 68.0 °F 83% 30.13 in 10.0 mi ENE 6.9 mph - N/A   Mostly Cloudy
1:15 AM 73.4 °F - 68.0 °F 83% 30.12 in 10.0 mi ENE 9.2 mph - N/A   Mostly Cloudy
1:35 AM 73.4 °F - 68.0 °F 83% 30.12 in 10.0 mi ENE 10.4 mph - N/A   Scattered Clouds
1:55 AM 73.4 °F - 68.0 °F 83% 30.11 in 10.0 mi ENE 8.1 mph - N/A   Mostly Cloudy
2:15 AM 73.4 °F - 68.0 °F 83% 30.11 in 10.0 mi ENE 9.2 mph - N/A   Scattered Clouds
2:35 AM 73.4 °F - 68.0 °F 83% 30.11 in 10.0 mi ENE 9.2 mph - N/A   Scattered Clouds
2:55 AM 73.4 °F - 68.0 °F 83% 30.11 in 10.0 mi ENE 10.4 mph - N/A   Clear
3:15 AM 73.4 °F - 69.8 °F 88% 30.11 in 10.0 mi NE 8.1 mph - N/A   Scattered Clouds
3:35 AM 71.6 °F - 69.8 °F 94% 30.10 in 10.0 mi NE 10.4 mph - N/A   Mostly Cloudy
3:55 AM 71.6 °F - 69.8 °F 94% 30.10 in 10.0 mi ENE 9.2 mph - N/A   Mostly Cloudy
4:15 AM 71.6 °F - 69.8 °F 94% 30.10 in 10.0 mi ENE 8.1 mph - N/A   Overcast
4:35 AM 71.6 °F - 69.8 °F 94% 30.10 in 10.0 mi ENE 10.4 mph - N/A   Overcast
4:55 AM 73.4 °F - 69.8 °F 88% 30.10 in 10.0 mi ENE 9.2 mph - N/A   Overcast
5:15 AM 71.6 °F - 69.8 °F 94% 30.11 in 10.0 mi ENE 11.5 mph - N/A   Overcast
5:35 AM 73.4 °F - 68.0 °F 83% 30.11 in 10.0 mi ENE 12.7 mph 16.1 mph N/A   Overcast
5:55 AM 71.6 °F - 68.0 °F 88% 30.11 in 10.0 mi ENE 10.4 mph - N/A   Overcast
6:15 AM 71.6 °F - 68.0 °F 88% 30.12 in 10.0 mi ENE 8.1 mph - N/A   Overcast
6:35 AM 71.6 °F - 68.0 °F 88% 30.13 in 10.0 mi NE 9.2 mph - N/A   Overcast
6:55 AM 71.6 °F - 68.0 °F 88% 30.13 in 10.0 mi NE 9.2 mph - N/A   Overcast
7:15 AM 71.6 °F - 68.0 °F 88% 30.14 in 10.0 mi ENE 10.4 mph - N/A   Overcast
7:35 AM 71.6 °F - 68.0 °F 88% 30.14 in 10.0 mi ENE 10.4 mph - N/A   Overcast
7:55 AM 71.6 °F - 68.0 °F 88% 30.15 in 10.0 mi ENE 8.1 mph - N/A   Overcast
8:15 AM 73.4 °F - 68.0 °F 83% 30.15 in 10.0 mi ENE 9.2 mph - N/A   Overcast
8:35 AM 73.4 °F - 68.0 °F 83% 30.16 in 10.0 mi ENE 9.2 mph - N/A   Overcast
8:55 AM 77.0 °F - 68.0 °F 74% 30.16 in 10.0 mi NE 9.2 mph - N/A   Overcast
9:15 AM 78.8 °F - 68.0 °F 69% 30.16 in 10.0 mi ENE 9.2 mph - N/A   Overcast
9:35 AM 78.8 °F - 69.8 °F 74% 30.16 in 10.0 mi ENE 10.4 mph 16.1 mph N/A   Overcast
9:55 AM 80.6 °F 83.9 °F 69.8 °F 70% 30.17 in 10.0 mi ENE 12.7 mph 17.3 mph N/A   Overcast
10:15 AM 82.4 °F 85.4 °F 68.0 °F 62% 30.17 in 10.0 mi ENE 12.7 mph 20.7 mph N/A   Overcast
10:35 AM 82.4 °F 86.3 °F 69.8 °F 66% 30.16 in 10.0 mi ENE 15.0 mph 19.6 mph N/A   Overcast
10:55 AM 84.2 °F 88.4 °F 69.8 °F 62% 30.16 in 10.0 mi East 13.8 mph 21.9 mph N/A   Mostly Cloudy
11:15 AM 86.0 °F 90.4 °F 69.8 °F 58% 30.15 in 10.0 mi East 13.8 mph 21.9 mph N/A   Scattered Clouds
11:35 AM 87.8 °F 91.4 °F 68.0 °F 52% 30.15 in 10.0 mi East 17.3 mph 24.2 mph N/A   Scattered Clouds
11:55 AM 87.8 °F 90.4 °F 66.2 °F 49% 30.15 in 10.0 mi East 17.3 mph 20.7 mph N/A   Scattered Clouds
12:15 PM 87.8 °F 90.4 °F 66.2 °F 49% 30.14 in 10.0 mi East 15.0 mph 21.9 mph N/A   Scattered Clouds
12:35 PM 87.8 °F 89.4 °F 64.4 °F 46% 30.14 in 10.0 mi East 13.8 mph 20.7 mph N/A   Mostly Cloudy
12:55 PM 89.6 °F 91.1 °F 64.4 °F 43% 30.13 in 10.0 mi East 13.8 mph 24.2 mph N/A   Mostly Cloudy
1:15 PM 89.6 °F 92.2 °F 66.2 °F 46% 30.12 in 10.0 mi ENE 13.8 mph 18.4 mph N/A   Scattered Clouds
1:35 PM 89.6 °F 93.4 °F 68.0 °F 49% 30.12 in 10.0 mi ENE 13.8 mph - N/A   Mostly Cloudy
1:55 PM 89.6 °F 93.4 °F 68.0 °F 49% 30.11 in 10.0 mi East 17.3 mph 20.7 mph N/A   Mostly Cloudy
2:15 PM 89.6 °F 93.4 °F 68.0 °F 49% 30.10 in 10.0 mi East 12.7 mph 20.7 mph N/A   Mostly Cloudy
2:35 PM 89.6 °F 92.2 °F 66.2 °F 46% 30.10 in 10.0 mi ENE 16.1 mph 23.0 mph N/A   Mostly Cloudy
2:55 PM 89.6 °F 93.4 °F 68.0 °F 49% 30.09 in 10.0 mi East 13.8 mph 19.6 mph N/A   Scattered Clouds
3:15 PM 91.4 °F 95.4 °F 68.0 °F 46% 30.08 in 10.0 mi ENE 18.4 mph - N/A   Mostly Cloudy
3:35 PM 89.6 °F 93.4 °F 68.0 °F 49% 30.08 in 10.0 mi East 17.3 mph 23.0 mph N/A   Mostly Cloudy
3:55 PM 89.6 °F 93.4 °F 68.0 °F 49% 30.08 in 10.0 mi East 16.1 mph 21.9 mph N/A   Mostly Cloudy
4:15 PM 87.8 °F 91.4 °F 68.0 °F 52% 30.08 in 10.0 mi East 17.3 mph 21.9 mph N/A   Mostly Cloudy
4:35 PM 89.6 °F 93.4 °F 68.0 °F 49% 30.07 in 10.0 mi East 17.3 mph 21.9 mph N/A   Mostly Cloudy
4:55 PM 87.8 °F 91.4 °F 68.0 °F 52% 30.07 in 10.0 mi East 13.8 mph 25.3 mph N/A   Mostly Cloudy
5:15 PM 86.0 °F 89.4 °F 68.0 °F 55% 30.07 in 10.0 mi East 13.8 mph 19.6 mph N/A   Overcast
5:35 PM 87.8 °F 91.4 °F 68.0 °F 52% 30.07 in 10.0 mi East 16.1 mph 21.9 mph N/A   Mostly Cloudy
5:55 PM 87.8 °F 91.4 °F 68.0 °F 52% 30.07 in 10.0 mi ENE 15.0 mph 23.0 mph N/A   Mostly Cloudy
6:15 PM 86.0 °F 89.4 °F 68.0 °F 55% 30.08 in 10.0 mi ENE 18.4 mph 21.9 mph N/A   Overcast
6:35 PM 86.0 °F 89.4 °F 68.0 °F 55% 30.08 in 10.0 mi ENE 18.4 mph 23.0 mph N/A   Overcast
6:55 PM 84.2 °F 87.3 °F 68.0 °F 58% 30.08 in 10.0 mi ENE 13.8 mph 23.0 mph N/A   Overcast
7:15 PM 82.4 °F 85.4 °F 68.0 °F 62% 30.09 in 10.0 mi East 15.0 mph 20.7 mph N/A   Overcast
7:35 PM 82.4 °F 85.4 °F 68.0 °F 62% 30.09 in 10.0 mi East 15.0 mph 23.0 mph N/A   Overcast
7:55 PM 80.6 °F 83.9 °F 69.8 °F 70% 30.10 in 10.0 mi ENE 13.8 mph 19.6 mph N/A   Overcast
8:15 PM 80.6 °F 83.2 °F 68.0 °F 65% 30.10 in 10.0 mi East 12.7 mph - N/A   Overcast
8:35 PM 80.6 °F 83.9 °F 69.8 °F 70% 30.11 in 10.0 mi ENE 10.4 mph - N/A   Mostly Cloudy
8:55 PM 80.6 °F 83.9 °F 69.8 °F 70% 30.11 in 10.0 mi ENE 10.4 mph - N/A   Overcast
9:15 PM 78.8 °F - 69.8 °F 74% 30.11 in 10.0 mi ENE 11.5 mph 16.1 mph N/A   Overcast
9:35 PM 78.8 °F - 69.8 °F 74% 30.11 in 10.0 mi ENE 11.5 mph - N/A   Overcast
9:55 PM 78.8 °F - 69.8 °F 74% 30.12 in 10.0 mi East 11.5 mph 17.3 mph N/A   Overcast
10:15 PM 78.8 °F - 69.8 °F 74% 30.12 in 10.0 mi ENE 12.7 mph - N/A   Overcast
10:35 PM 78.8 °F - 69.8 °F 74% 30.13 in 10.0 mi ENE 9.2 mph - N/A   Overcast
10:55 PM 77.0 °F - 69.8 °F 78% 30.12 in 10.0 mi ENE 8.1 mph - N/A   Overcast
11:15 PM 77.0 °F - 69.8 °F 78% 30.12 in 10.0 mi NE 8.1 mph - N/A   Overcast
11:35 PM 77.0 °F - 69.8 °F 78% 30.12 in 10.0 mi NE 9.2 mph - N/A   Overcast
11:55 PM 75.2 °F - 69.8 °F 83% 30.12 in 10.0 mi NE 9.2 mph - N/A   Overcast